Time,TemperatureF,DewpointF,PressureIn,WindDirection,WindDirectionDegrees,WindSpeedMPH,WindSpeedGustMPH,Humidity,HourlyPrecipIn,Conditions,Clouds,dailyrainin,SoftwareType,DateUTC
2013-07-31 00:00:00,65.3,59.0,30.12,West,270,0.0,0.0,80,0.00,,,0.00,WUHU216HW,2013-07-31 04:00:00,
2013-07-31 00:01:00,65.3,59.0,30.12,West,270,0.0,0.0,80,0.00,,,0.00,WUHU216HW,2013-07-31 04:01:00,
2013-07-31 00:02:00,65.3,59.0,30.12,West,270,0.0,0.0,80,0.00,,,0.00,WUHU216HW,2013-07-31 04:02:00,
2013-07-31 00:07:00,65.3,59.0,30.12,West,270,0.0,0.0,80,0.00,,,0.00,WUHU216HW,2013-07-31 04:07:00,
2013-07-31 00:12:00,65.2,58.9,30.11,West,270,0.0,0.0,80,0.00,,,0.00,WUHU216HW,2013-07-31 04:12:00,
2013-07-31 00:17:00,65.0,58.7,30.12,West,270,0.0,0.0,80,0.00,,,0.00,WUHU216HW,2013-07-31 04:17:00,
2013-07-31 00:22:00,65.0,59.1,30.11,West,270,0.0,0.0,81,0.00,,,0.00,WUHU216HW,2013-07-31 04:22:00,
2013-07-31 00:27:00,65.0,59.1,30.11,West,270,0.0,0.0,81,0.00,,,0.00,WUHU216HW,2013-07-31 04:27:00,
2013-07-31 00:32:00,64.8,58.9,30.11,West,270,0.0,0.0,81,0.00,,,0.00,WUHU216HW,2013-07-31 04:32:00,
2013-07-31 00:37:00,64.6,58.7,30.11,West,270,0.0,0.0,81,0.00,,,0.00,WUHU216HW,2013-07-31 04:37:00,
2013-07-31 00:42:00,64.6,58.7,30.11,West,270,0.0,0.0,81,0.00,,,0.00,WUHU216HW,2013-07-31 04:42:00,
2013-07-31 00:47:00,64.4,58.5,30.11,West,270,0.0,0.0,81,0.00,,,0.00,WUHU216HW,2013-07-31 04:47:00,
2013-07-31 00:52:00,64.3,58.7,30.11,West,270,0.0,0.0,82,0.00,,,0.00,WUHU216HW,2013-07-31 04:52:00,
2013-07-31 00:57:00,64.1,58.2,30.11,West,270,0.0,0.0,81,0.00,,,0.00,WUHU216HW,2013-07-31 04:57:00,
2013-07-31 01:02:00,64.1,58.2,30.11,West,270,0.0,0.0,81,0.00,,,0.00,WUHU216HW,2013-07-31 05:02:00,
2013-07-31 01:07:00,64.1,58.2,30.11,West,270,0.0,0.0,81,0.00,,,0.00,WUHU216HW,2013-07-31 05:07:00,
2013-07-31 01:12:00,63.9,58.0,30.11,West,270,0.0,0.0,81,0.00,,,0.00,WUHU216HW,2013-07-31 05:12:00,
2013-07-31 01:17:00,63.9,58.3,30.11,West,270,0.0,0.0,82,0.00,,,0.00,WUHU216HW,2013-07-31 05:17:00,
2013-07-31 01:22:00,63.9,58.3,30.11,West,270,0.0,0.0,82,0.00,,,0.00,WUHU216HW,2013-07-31 05:22:00,
2013-07-31 01:27:00,63.7,58.2,30.11,West,270,0.0,0.0,82,0.00,,,0.00,WUHU216HW,2013-07-31 05:27:00,
2013-07-31 01:32:00,63.7,58.2,30.11,West,270,0.0,0.0,82,0.00,,,0.00,WUHU216HW,2013-07-31 05:32:00,
2013-07-31 01:37:00,63.5,58.0,30.11,West,270,0.0,0.0,82,0.00,,,0.00,WUHU216HW,2013-07-31 05:37:00,
2013-07-31 01:42:00,63.5,58.0,30.11,West,270,0.0,0.0,82,0.00,,,0.00,WUHU216HW,2013-07-31 05:42:00,
2013-07-31 01:47:00,63.5,58.0,30.11,West,270,0.0,0.0,82,0.00,,,0.00,WUHU216HW,2013-07-31 05:47:00,
2013-07-31 01:52:00,63.5,58.0,30.10,West,270,0.0,0.0,82,0.00,,,0.00,WUHU216HW,2013-07-31 05:52:00,
2013-07-31 01:57:00,63.5,58.2,30.10,West,270,0.0,0.0,83,0.00,,,0.00,WUHU216HW,2013-07-31 05:57:00,
2013-07-31 02:02:00,63.4,58.1,30.10,West,270,0.0,0.0,83,0.00,,,0.00,WUHU216HW,2013-07-31 06:02:00,
2013-07-31 02:07:00,63.4,58.1,30.11,West,270,0.0,0.0,83,0.00,,,0.00,WUHU216HW,2013-07-31 06:07:00,
2013-07-31 02:12:00,63.2,57.9,30.10,West,270,0.0,0.0,83,0.00,,,0.00,WUHU216HW,2013-07-31 06:12:00,
2013-07-31 02:17:00,63.2,57.9,30.11,West,270,0.0,0.0,83,0.00,,,0.00,WUHU216HW,2013-07-31 06:17:00,
2013-07-31 02:22:00,63.2,57.9,30.11,West,270,0.0,0.0,83,0.00,,,0.00,WUHU216HW,2013-07-31 06:22:00,
2013-07-31 02:27:00,63.2,57.9,30.11,West,270,0.0,0.0,83,0.00,,,0.00,WUHU216HW,2013-07-31 06:27:00,
2013-07-31 02:32:00,63.2,57.9,30.11,West,270,0.0,0.0,83,0.00,,,0.00,WUHU216HW,2013-07-31 06:32:00,
2013-07-31 02:37:00,63.0,57.7,30.11,West,270,0.0,0.0,83,0.00,,,0.00,WUHU216HW,2013-07-31 06:37:00,
2013-07-31 02:42:00,62.8,57.5,30.11,West,270,0.0,0.0,83,0.00,,,0.00,WUHU216HW,2013-07-31 06:42:00,
2013-07-31 02:47:00,62.8,57.5,30.11,West,270,0.0,0.0,83,0.00,,,0.00,WUHU216HW,2013-07-31 06:47:00,
2013-07-31 02:52:00,62.8,57.9,30.11,West,270,0.0,0.0,84,0.00,,,0.00,WUHU216HW,2013-07-31 06:52:00,
2013-07-31 02:57:00,62.8,57.9,30.11,West,270,0.0,0.0,84,0.00,,,0.00,WUHU216HW,2013-07-31 06:57:00,
2013-07-31 03:02:00,62.8,57.9,30.11,West,270,0.0,0.0,84,0.00,,,0.00,WUHU216HW,2013-07-31 07:02:00,
2013-07-31 03:07:00,62.6,57.7,30.11,West,270,0.0,0.0,84,0.00,,,0.00,WUHU216HW,2013-07-31 07:07:00,
2013-07-31 03:12:00,62.5,57.5,30.11,West,270,0.0,0.0,84,0.00,,,0.00,WUHU216HW,2013-07-31 07:12:00,
2013-07-31 03:17:00,62.3,57.3,30.11,West,270,0.0,0.0,84,0.00,,,0.00,WUHU216HW,2013-07-31 07:17:00,
2013-07-31 03:22:00,62.3,57.3,30.11,West,270,0.0,0.0,84,0.00,,,0.00,WUHU216HW,2013-07-31 07:22:00,
2013-07-31 03:27:00,62.1,57.3,30.11,West,270,0.0,0.0,84,0.00,,,0.00,WUHU216HW,2013-07-31 07:27:00,
2013-07-31 03:32:00,61.9,57.3,30.11,West,270,0.0,0.0,85,0.00,,,0.00,WUHU216HW,2013-07-31 07:32:00,
2013-07-31 03:37:00,61.7,57.2,30.11,West,270,0.0,0.0,85,0.00,,,0.00,WUHU216HW,2013-07-31 07:37:00,
2013-07-31 03:42:00,61.6,57.1,30.11,West,270,0.0,0.0,85,0.00,,,0.00,WUHU216HW,2013-07-31 07:42:00,
2013-07-31 03:47:00,61.6,57.1,30.11,West,270,0.0,0.0,85,0.00,,,0.00,WUHU216HW,2013-07-31 07:47:00,
2013-07-31 03:52:00,61.6,57.1,30.11,West,270,0.0,0.0,85,0.00,,,0.00,WUHU216HW,2013-07-31 07:52:00,
2013-07-31 03:57:00,61.6,57.1,30.12,West,270,0.0,0.0,85,0.00,,,0.00,WUHU216HW,2013-07-31 07:57:00,
2013-07-31 04:02:00,61.4,56.9,30.12,West,270,0.0,0.0,85,0.00,,,0.00,WUHU216HW,2013-07-31 08:02:00,
2013-07-31 04:07:00,61.4,56.9,30.12,West,270,0.0,0.0,85,0.00,,,0.00,WUHU216HW,2013-07-31 08:07:00,
2013-07-31 04:12:00,61.2,56.7,30.12,West,270,0.0,0.0,85,0.00,,,0.00,WUHU216HW,2013-07-31 08:12:00,
2013-07-31 04:17:00,61.2,56.7,30.12,West,270,0.0,0.0,85,0.00,,,0.00,WUHU216HW,2013-07-31 08:17:00,
2013-07-31 04:22:00,61.2,56.7,30.12,West,270,0.0,0.0,85,0.00,,,0.00,WUHU216HW,2013-07-31 08:22:00,
2013-07-31 04:27:00,61.0,56.5,30.12,West,270,0.0,0.0,85,0.00,,,0.00,WUHU216HW,2013-07-31 08:27:00,
2013-07-31 04:32:00,61.0,56.5,30.12,West,270,0.0,0.0,85,0.00,,,0.00,WUHU216HW,2013-07-31 08:32:00,
2013-07-31 04:37:00,61.0,56.5,30.12,West,270,0.0,0.0,85,0.00,,,0.00,WUHU216HW,2013-07-31 08:37:00,
2013-07-31 04:42:00,60.8,56.3,30.12,West,270,0.0,0.0,85,0.00,,,0.00,WUHU216HW,2013-07-31 08:42:00,
2013-07-31 04:47:00,60.8,56.3,30.12,West,270,0.0,0.0,85,0.00,,,0.00,WUHU216HW,2013-07-31 08:47:00,
2013-07-31 04:52:00,60.8,56.3,30.12,West,270,0.0,0.0,85,0.00,,,0.00,WUHU216HW,2013-07-31 08:52:00,
2013-07-31 04:57:00,60.7,56.2,30.13,West,270,0.0,0.0,85,0.00,,,0.00,WUHU216HW,2013-07-31 08:57:00,
2013-07-31 05:02:00,60.5,56.0,30.13,West,270,0.0,0.0,85,0.00,,,0.00,WUHU216HW,2013-07-31 09:02:00,
2013-07-31 05:07:00,60.5,56.0,30.13,West,270,0.0,0.0,85,0.00,,,0.00,WUHU216HW,2013-07-31 09:07:00,
2013-07-31 05:12:00,60.3,56.2,30.13,West,270,0.0,0.0,86,0.00,,,0.00,WUHU216HW,2013-07-31 09:12:00,
2013-07-31 05:17:00,60.3,56.2,30.13,West,270,0.0,0.0,86,0.00,,,0.00,WUHU216HW,2013-07-31 09:17:00,
2013-07-31 05:22:00,60.1,56.0,30.13,West,270,0.0,0.0,86,0.00,,,0.00,WUHU216HW,2013-07-31 09:22:00,
2013-07-31 05:27:00,60.1,56.0,30.14,West,270,0.0,0.0,86,0.00,,,0.00,WUHU216HW,2013-07-31 09:27:00,
2013-07-31 05:32:00,60.1,56.0,30.14,West,270,0.0,0.0,86,0.00,,,0.00,WUHU216HW,2013-07-31 09:32:00,
2013-07-31 05:37:00,60.1,56.0,30.14,West,270,0.0,0.0,86,0.00,,,0.00,WUHU216HW,2013-07-31 09:37:00,
2013-07-31 05:42:00,59.9,55.8,30.14,West,270,0.0,0.0,86,0.00,,,0.00,WUHU216HW,2013-07-31 09:42:00,
2013-07-31 05:47:00,59.9,55.8,30.14,West,270,0.0,0.0,86,0.00,,,0.00,WUHU216HW,2013-07-31 09:47:00,
2013-07-31 05:52:00,59.9,55.8,30.14,West,270,0.0,0.0,86,0.00,,,0.00,WUHU216HW,2013-07-31 09:52:00,
2013-07-31 05:57:00,59.9,55.8,30.15,West,270,0.0,0.0,86,0.00,,,0.00,WUHU216HW,2013-07-31 09:57:00,
2013-07-31 06:02:00,59.8,55.6,30.15,West,270,0.0,0.0,86,0.00,,,0.00,WUHU216HW,2013-07-31 10:02:00,
2013-07-31 06:07:00,59.8,55.9,30.15,West,270,0.0,0.0,87,0.00,,,0.00,WUHU216HW,2013-07-31 10:07:00,
2013-07-31 06:12:00,59.8,55.9,30.15,West,270,0.0,0.0,87,0.00,,,0.00,WUHU216HW,2013-07-31 10:12:00,
2013-07-31 06:17:00,59.8,55.9,30.15,West,270,0.0,0.0,87,0.00,,,0.00,WUHU216HW,2013-07-31 10:17:00,
2013-07-31 06:22:00,59.9,56.1,30.15,West,270,0.0,0.0,87,0.00,,,0.00,WUHU216HW,2013-07-31 10:22:00,
2013-07-31 06:27:00,59.8,55.9,30.15,West,270,0.0,0.0,87,0.00,,,0.00,WUHU216HW,2013-07-31 10:27:00,
2013-07-31 06:32:00,59.9,56.1,30.15,West,270,0.0,0.0,87,0.00,,,0.00,WUHU216HW,2013-07-31 10:32:00,
2013-07-31 06:37:00,60.1,56.3,30.15,West,270,0.0,0.0,87,0.00,,,0.00,WUHU216HW,2013-07-31 10:37:00,
2013-07-31 06:42:00,60.1,56.3,30.16,West,270,0.0,0.0,87,0.00,,,0.00,WUHU216HW,2013-07-31 10:42:00,
2013-07-31 06:47:00,60.3,56.4,30.16,West,270,0.0,0.0,87,0.00,,,0.00,WUHU216HW,2013-07-31 10:47:00,
2013-07-31 06:52:00,60.5,56.6,30.16,West,270,0.0,0.0,87,0.00,,,0.00,WUHU216HW,2013-07-31 10:52:00,
2013-07-31 06:57:00,60.7,56.8,30.16,West,270,0.0,0.0,87,0.00,,,0.00,WUHU216HW,2013-07-31 10:57:00,
2013-07-31 07:03:00,60.8,57.0,30.16,West,270,0.0,0.0,87,0.00,,,0.00,WUHU216HW,2013-07-31 11:03:00,
2013-07-31 07:08:00,61.0,57.2,30.16,West,270,0.0,0.0,87,0.00,,,0.00,WUHU216HW,2013-07-31 11:08:00,
2013-07-31 07:13:00,61.2,57.3,30.16,West,270,0.0,0.0,87,0.00,,,0.00,WUHU216HW,2013-07-31 11:13:00,
2013-07-31 07:18:00,61.4,57.5,30.16,West,270,0.0,0.0,87,0.00,,,0.00,WUHU216HW,2013-07-31 11:18:00,
2013-07-31 07:23:00,61.7,58.2,30.16,NW,315,0.0,0.2,88,0.00,,,0.00,WUHU216HW,2013-07-31 11:23:00,
2013-07-31 07:27:00,62.1,58.2,30.16,NW,315,0.0,0.2,87,0.00,,,0.00,WUHU216HW,2013-07-31 11:27:00,
2013-07-31 07:32:00,62.5,58.9,30.16,NW,315,0.4,0.4,88,0.00,,,0.00,WUHU216HW,2013-07-31 11:32:00,
2013-07-31 07:37:00,63.0,59.1,30.16,SW,225,1.3,1.3,87,0.00,,,0.00,WUHU216HW,2013-07-31 11:37:00,
2013-07-31 07:42:00,63.7,59.9,30.16,WNW,293,0.4,1.3,87,0.00,,,0.00,WUHU216HW,2013-07-31 11:42:00,
2013-07-31 07:47:00,63.9,59.7,30.16,WSW,248,0.4,1.3,86,0.00,,,0.00,WUHU216HW,2013-07-31 11:47:00,
2013-07-31 07:52:00,64.3,59.7,30.16,WSW,248,0.9,1.1,85,0.00,,,0.00,WUHU216HW,2013-07-31 11:52:00,
2013-07-31 07:57:00,64.4,59.9,30.16,NNW,338,0.0,0.9,85,0.00,,,0.00,WUHU216HW,2013-07-31 11:57:00,
2013-07-31 08:02:00,64.8,60.2,30.16,ENE,68,0.0,2.9,85,0.00,,,0.00,WUHU216HW,2013-07-31 12:02:00,
2013-07-31 08:08:00,65.2,60.6,30.16,East,90,0.0,2.9,85,0.00,,,0.00,WUHU216HW,2013-07-31 12:08:00,
2013-07-31 08:12:00,65.5,60.6,30.16,WNW,293,0.0,1.3,84,0.00,,,0.00,WUHU216HW,2013-07-31 12:12:00,
2013-07-31 08:18:00,65.9,60.6,30.16,SSW,203,0.0,1.8,83,0.00,,,0.00,WUHU216HW,2013-07-31 12:18:00,
2013-07-31 08:22:00,66.6,61.3,30.16,ESE,113,0.0,1.8,83,0.00,,,0.00,WUHU216HW,2013-07-31 12:22:00,
2013-07-31 08:27:00,67.0,61.3,30.16,North,0,0.4,1.8,82,0.00,,,0.00,WUHU216HW,2013-07-31 12:27:00,
2013-07-31 08:32:00,67.3,61.0,30.16,NNE,23,0.4,1.1,80,0.00,,,0.00,WUHU216HW,2013-07-31 12:32:00,
2013-07-31 08:37:00,68.0,61.7,30.16,West,270,0.0,1.8,80,0.00,,,0.00,WUHU216HW,2013-07-31 12:37:00,
2013-07-31 08:43:00,68.6,61.5,30.16,WNW,293,0.2,1.8,78,0.00,,,0.00,WUHU216HW,2013-07-31 12:43:00,
2013-07-31 08:48:00,69.1,61.9,30.16,NNE,23,0.0,2.0,78,0.00,,,0.00,WUHU216HW,2013-07-31 12:48:00,
2013-07-31 08:53:00,69.5,61.9,30.16,ENE,68,0.0,3.1,77,0.00,,,0.00,WUHU216HW,2013-07-31 12:53:00,
2013-07-31 08:58:00,70.0,62.0,30.16,NW,315,0.0,3.1,76,0.00,,,0.00,WUHU216HW,2013-07-31 12:58:00,
2013-07-31 09:03:00,70.6,62.6,30.16,North,0,0.0,1.8,76,0.00,,,0.00,WUHU216HW,2013-07-31 13:03:00,
2013-07-31 09:08:00,71.1,62.0,30.16,SW,225,0.4,1.8,73,0.00,,,0.00,WUHU216HW,2013-07-31 13:08:00,
2013-07-31 09:13:00,71.8,61.9,30.16,SSW,203,0.0,4.5,71,0.00,,,0.00,WUHU216HW,2013-07-31 13:13:00,
2013-07-31 09:18:00,72.4,60.3,30.16,SW,225,2.9,4.5,66,0.00,,,0.00,WUHU216HW,2013-07-31 13:18:00,
2013-07-31 09:23:00,73.1,62.4,30.16,ESE,113,1.1,3.8,69,0.00,,,0.00,WUHU216HW,2013-07-31 13:23:00,
2013-07-31 09:28:00,73.6,62.9,30.16,SSW,203,0.4,1.8,69,0.00,,,0.00,WUHU216HW,2013-07-31 13:28:00,
2013-07-31 09:33:00,74.2,61.2,30.16,ENE,68,1.1,3.8,64,0.00,,,0.00,WUHU216HW,2013-07-31 13:33:00,
2013-07-31 09:38:00,74.3,61.4,30.16,NNW,338,0.0,3.8,64,0.00,,,0.00,WUHU216HW,2013-07-31 13:38:00,
2013-07-31 09:43:00,74.9,61.8,30.16,NE,45,1.3,4.0,64,0.00,,,0.00,WUHU216HW,2013-07-31 13:43:00,
2013-07-31 09:48:00,75.2,60.9,30.16,South,180,0.9,4.0,61,0.00,,,0.00,WUHU216HW,2013-07-31 13:48:00,
2013-07-31 09:53:00,75.6,61.2,30.16,NW,315,0.7,2.2,61,0.00,,,0.00,WUHU216HW,2013-07-31 13:53:00,
2013-07-31 09:58:00,76.1,62.7,30.16,West,270,0.4,2.7,63,0.00,,,0.00,WUHU216HW,2013-07-31 13:58:00,
2013-07-31 10:03:00,76.7,61.3,30.16,West,270,0.0,2.7,59,0.00,,,0.00,WUHU216HW,2013-07-31 14:03:00,
2013-07-31 10:08:00,76.7,61.3,30.16,WNW,293,0.4,4.0,59,0.00,,,0.00,WUHU216HW,2013-07-31 14:08:00,
2013-07-31 10:13:00,76.7,61.3,30.16,SW,225,0.7,4.0,59,0.00,,,0.00,WUHU216HW,2013-07-31 14:13:00,
2013-07-31 10:18:00,76.9,60.4,30.16,SSW,203,1.3,2.5,57,0.00,,,0.00,WUHU216HW,2013-07-31 14:18:00,
2013-07-31 10:23:00,77.0,62.1,30.15,NW,315,0.2,2.5,60,0.00,,,0.00,WUHU216HW,2013-07-31 14:23:00,
2013-07-31 10:28:00,77.9,62.5,30.15,SSE,158,1.6,1.8,59,0.00,,,0.00,WUHU216HW,2013-07-31 14:28:00,
2013-07-31 10:33:00,78.5,62.0,30.15,NNE,23,1.1,1.8,57,0.00,,,0.00,WUHU216HW,2013-07-31 14:33:00,
2013-07-31 10:38:00,78.8,59.2,30.14,ENE,68,1.1,2.5,51,0.00,,,0.00,WUHU216HW,2013-07-31 14:38:00,
2013-07-31 10:43:00,78.8,59.8,30.15,NNE,23,0.4,3.8,52,0.00,,,0.00,WUHU216HW,2013-07-31 14:43:00,
2013-07-31 10:48:00,78.3,58.2,30.14,NW,315,1.6,3.8,50,0.00,,,0.00,WUHU216HW,2013-07-31 14:48:00,
2013-07-31 10:53:00,78.5,58.9,30.14,ENE,68,0.0,2.5,51,0.00,,,0.00,WUHU216HW,2013-07-31 14:53:00,
2013-07-31 10:58:00,79.2,59.5,30.14,East,90,0.0,2.5,51,0.00,,,0.00,WUHU216HW,2013-07-31 14:58:00,
2013-07-31 11:03:00,79.6,59.3,30.14,East,90,0.7,1.8,50,0.00,,,0.00,WUHU216HW,2013-07-31 15:03:00,
2013-07-31 11:08:00,79.9,59.7,30.14,WNW,293,2.2,2.5,50,0.00,,,0.00,WUHU216HW,2013-07-31 15:08:00,
2013-07-31 11:13:00,80.5,60.1,30.14,East,90,1.3,2.5,50,0.00,,,0.00,WUHU216HW,2013-07-31 15:13:00,
2013-07-31 11:18:00,81.0,59.4,30.14,West,270,1.6,2.2,48,0.00,,,0.00,WUHU216HW,2013-07-31 15:18:00,
2013-07-31 11:23:00,80.6,59.0,30.14,SW,225,1.3,2.5,48,0.00,,,0.00,WUHU216HW,2013-07-31 15:23:00,
2013-07-31 11:28:00,81.2,61.3,30.14,NE,45,0.2,2.5,51,0.00,,,0.00,WUHU216HW,2013-07-31 15:28:00,
2013-07-31 11:33:00,82.1,62.1,30.14,SSW,203,0.0,2.5,51,0.00,,,0.00,WUHU216HW,2013-07-31 15:33:00,
2013-07-31 11:38:00,81.5,58.1,30.14,SW,225,2.5,3.1,45,0.00,,,0.00,WUHU216HW,2013-07-31 15:38:00,
2013-07-31 11:43:00,81.0,60.0,30.14,SSE,158,0.2,3.1,49,0.00,,,0.00,WUHU216HW,2013-07-31 15:43:00,
2013-07-31 11:47:00,81.2,57.7,30.14,WSW,248,1.1,2.5,45,0.00,,,0.00,WUHU216HW,2013-07-31 15:47:00,
2013-07-31 11:52:00,81.4,60.9,30.14,ESE,113,1.1,2.5,50,0.00,,,0.00,WUHU216HW,2013-07-31 15:52:00,
2013-07-31 11:57:00,81.7,60.0,30.13,SW,225,1.3,2.0,48,0.00,,,0.00,WUHU216HW,2013-07-31 15:57:00,
2013-07-31 12:02:00,81.7,59.4,30.13,WNW,293,1.1,2.0,47,0.00,,,0.00,WUHU216HW,2013-07-31 16:02:00,
2013-07-31 12:07:00,81.5,59.9,30.13,WNW,293,0.4,2.2,48,0.00,,,0.00,WUHU216HW,2013-07-31 16:07:00,
2013-07-31 12:12:00,81.7,58.9,30.13,South,180,1.3,2.2,46,0.00,,,0.00,WUHU216HW,2013-07-31 16:12:00,
2013-07-31 12:17:00,82.1,62.6,30.13,NNE,23,0.4,2.5,52,0.00,,,0.00,WUHU216HW,2013-07-31 16:17:00,
2013-07-31 12:22:00,81.9,61.5,30.13,North,0,0.4,2.5,50,0.00,,,0.00,WUHU216HW,2013-07-31 16:22:00,
2013-07-31 12:27:00,81.9,61.9,30.13,North,0,0.2,1.3,51,0.00,,,0.00,WUHU216HW,2013-07-31 16:27:00,
2013-07-31 12:32:00,82.1,61.6,30.13,NE,45,0.4,2.5,50,0.00,,,0.00,WUHU216HW,2013-07-31 16:32:00,
2013-07-31 12:37:00,82.4,62.5,30.13,ESE,113,0.4,2.5,51,0.00,,,0.00,WUHU216HW,2013-07-31 16:37:00,
2013-07-31 12:42:00,81.9,59.0,30.12,WNW,293,0.9,2.9,46,0.00,,,0.00,WUHU216HW,2013-07-31 16:42:00,
2013-07-31 12:47:00,81.7,59.4,30.12,West,270,0.4,2.9,47,0.00,,,0.00,WUHU216HW,2013-07-31 16:47:00,
2013-07-31 12:52:00,81.5,60.5,30.12,ENE,68,0.0,2.5,49,0.00,,,0.00,WUHU216HW,2013-07-31 16:52:00,
2013-07-31 12:57:00,81.9,57.8,30.12,WSW,248,0.9,2.0,44,0.00,,,0.00,WUHU216HW,2013-07-31 16:57:00,
2013-07-31 13:02:00,81.7,58.9,30.12,SW,225,0.7,1.8,46,0.00,,,0.00,WUHU216HW,2013-07-31 17:02:00,
2013-07-31 13:07:00,82.1,58.5,30.12,SW,225,0.2,2.5,45,0.00,,,0.00,WUHU216HW,2013-07-31 17:07:00,
2013-07-31 13:12:00,82.3,58.7,30.12,ESE,113,1.8,2.5,45,0.00,,,0.00,WUHU216HW,2013-07-31 17:12:00,
2013-07-31 13:17:00,82.3,60.0,30.12,West,270,0.0,2.5,47,0.00,,,0.00,WUHU216HW,2013-07-31 17:17:00,
2013-07-31 13:22:00,82.6,58.4,30.12,WNW,293,2.2,2.5,44,0.00,,,0.00,WUHU216HW,2013-07-31 17:22:00,
2013-07-31 13:27:00,83.2,59.0,30.12,North,0,0.9,2.5,44,0.00,,,0.00,WUHU216HW,2013-07-31 17:27:00,
2013-07-31 13:32:00,83.0,57.5,30.12,WSW,248,0.0,2.5,42,0.00,,,0.00,WUHU216HW,2013-07-31 17:32:00,
2013-07-31 13:37:00,83.5,59.2,30.12,ENE,68,0.4,2.2,44,0.00,,,0.00,WUHU216HW,2013-07-31 17:37:00,
2013-07-31 13:42:00,84.2,59.9,30.12,WSW,248,0.9,1.8,44,0.00,,,0.00,WUHU216HW,2013-07-31 17:42:00,
2013-07-31 13:47:00,84.2,59.3,30.12,ESE,113,1.6,2.0,43,0.00,,,0.00,WUHU216HW,2013-07-31 17:47:00,
2013-07-31 13:52:00,84.2,60.6,30.11,WSW,248,0.4,2.0,45,0.00,,,0.00,WUHU216HW,2013-07-31 17:52:00,
2013-07-31 13:58:00,84.2,60.6,30.12,SSW,203,0.4,2.0,45,0.00,,,0.00,WUHU216HW,2013-07-31 17:58:00,
2013-07-31 14:03:00,84.8,60.4,30.12,SE,135,1.3,2.0,44,0.00,,,0.00,WUHU216HW,2013-07-31 18:03:00,
2013-07-31 14:08:00,85.0,59.3,30.11,SW,225,0.0,2.0,42,0.00,,,0.00,WUHU216HW,2013-07-31 18:08:00,
2013-07-31 14:13:00,84.6,58.4,30.11,WNW,293,1.1,2.5,41,0.00,,,0.00,WUHU216HW,2013-07-31 18:13:00,
2013-07-31 14:17:00,84.2,59.9,30.11,SE,135,1.6,2.5,44,0.00,,,0.00,WUHU216HW,2013-07-31 18:17:00,
2013-07-31 14:22:00,84.2,60.6,30.11,SE,135,0.0,2.5,45,0.00,,,0.00,WUHU216HW,2013-07-31 18:22:00,
2013-07-31 14:27:00,84.6,60.3,30.11,West,270,1.1,1.8,44,0.00,,,0.00,WUHU216HW,2013-07-31 18:27:00,
2013-07-31 14:32:00,83.3,59.8,30.11,WSW,248,0.4,1.6,45,0.00,,,0.00,WUHU216HW,2013-07-31 18:32:00,
2013-07-31 14:37:00,83.7,61.9,30.11,SW,225,0.0,1.6,48,0.00,,,0.00,WUHU216HW,2013-07-31 18:37:00,
2013-07-31 14:42:00,84.1,59.1,30.11,WSW,248,1.3,2.5,43,0.00,,,0.00,WUHU216HW,2013-07-31 18:42:00,
2013-07-31 14:47:00,84.2,59.9,30.11,North,0,0.4,2.5,44,0.00,,,0.00,WUHU216HW,2013-07-31 18:47:00,
2013-07-31 14:52:00,84.1,59.8,30.11,WSW,248,0.4,2.5,44,0.00,,,0.00,WUHU216HW,2013-07-31 18:52:00,
2013-07-31 14:57:00,83.7,60.0,30.11,SSW,203,1.6,2.5,45,0.00,,,0.00,WUHU216HW,2013-07-31 18:57:00,
2013-07-31 15:02:00,84.2,59.9,30.11,ENE,68,0.4,2.0,44,0.00,,,0.00,WUHU216HW,2013-07-31 19:02:00,
2013-07-31 15:07:00,84.6,59.7,30.11,West,270,0.7,2.0,43,0.00,,,0.00,WUHU216HW,2013-07-31 19:07:00,
2013-07-31 15:12:00,84.6,58.4,30.11,SW,225,1.8,2.7,41,0.00,,,0.00,WUHU216HW,2013-07-31 19:12:00,
2013-07-31 15:17:00,84.8,59.1,30.10,SSE,158,1.3,2.7,42,0.00,,,0.00,WUHU216HW,2013-07-31 19:17:00,
2013-07-31 15:22:00,84.4,58.9,30.10,WNW,293,0.4,1.8,42,0.00,,,0.00,WUHU216HW,2013-07-31 19:22:00,
2013-07-31 15:27:00,84.2,60.6,30.10,South,180,1.1,3.4,45,0.00,,,0.00,WUHU216HW,2013-07-31 19:27:00,
2013-07-31 15:32:00,85.0,61.2,30.10,NNW,338,1.3,3.4,45,0.00,,,0.00,WUHU216HW,2013-07-31 19:32:00,
2013-07-31 15:37:00,85.5,59.9,30.10,SSE,158,0.7,2.5,42,0.00,,,0.00,WUHU216HW,2013-07-31 19:37:00,
2013-07-31 15:42:00,85.3,59.7,30.10,South,180,1.1,2.5,42,0.00,,,0.00,WUHU216HW,2013-07-31 19:42:00,
2013-07-31 15:47:00,85.3,60.3,30.10,NNE,23,0.7,2.2,43,0.00,,,0.00,WUHU216HW,2013-07-31 19:47:00,
2013-07-31 15:52:00,85.0,59.9,30.10,WSW,248,0.0,2.2,43,0.00,,,0.00,WUHU216HW,2013-07-31 19:52:00,
2013-07-31 15:57:00,84.8,57.9,30.10,ESE,113,3.4,3.4,40,0.00,,,0.00,WUHU216HW,2013-07-31 19:57:00,
2013-07-31 16:02:00,84.2,58.7,30.10,WSW,248,0.2,3.4,42,0.00,,,0.00,WUHU216HW,2013-07-31 20:02:00,
2013-07-31 16:07:00,84.2,59.3,30.10,NW,315,0.7,3.4,43,0.00,,,0.00,WUHU216HW,2013-07-31 20:07:00,
2013-07-31 16:12:00,84.2,59.9,30.09,NW,315,0.0,2.5,44,0.00,,,0.00,WUHU216HW,2013-07-31 20:12:00,
2013-07-31 16:17:00,84.4,60.1,30.09,SE,135,0.4,2.9,44,0.00,,,0.00,WUHU216HW,2013-07-31 20:17:00,
2013-07-31 16:22:00,84.8,61.0,30.09,SE,135,1.1,2.9,45,0.00,,,0.00,WUHU216HW,2013-07-31 20:22:00,
2013-07-31 16:27:00,85.3,60.3,30.09,ENE,68,1.3,2.2,43,0.00,,,0.00,WUHU216HW,2013-07-31 20:27:00,
2013-07-31 16:32:00,85.1,61.4,30.09,ENE,68,0.9,1.8,45,0.00,,,0.00,WUHU216HW,2013-07-31 20:32:00,
2013-07-31 16:37:00,85.0,61.8,30.09,NW,315,0.0,1.8,46,0.00,,,0.00,WUHU216HW,2013-07-31 20:37:00,
2013-07-31 16:42:00,84.1,61.0,30.09,NW,315,0.0,0.9,46,0.00,,,0.00,WUHU216HW,2013-07-31 20:42:00,
2013-07-31 16:47:00,83.2,60.8,30.09,NW,315,0.0,0.7,47,0.00,,,0.00,WUHU216HW,2013-07-31 20:47:00,
2013-07-31 16:52:00,83.0,61.2,30.09,NNW,338,0.0,1.6,48,0.00,,,0.00,WUHU216HW,2013-07-31 20:52:00,
2013-07-31 16:57:00,83.0,61.2,30.09,NNW,338,0.0,1.6,48,0.00,,,0.00,WUHU216HW,2013-07-31 20:57:00,
2013-07-31 17:02:00,83.0,61.2,30.09,WNW,293,0.2,0.4,48,0.00,,,0.00,WUHU216HW,2013-07-31 21:02:00,
2013-07-31 17:07:00,83.0,61.2,30.08,WNW,293,0.0,0.4,48,0.00,,,0.00,WUHU216HW,2013-07-31 21:07:00,
2013-07-31 17:12:00,82.6,60.8,30.08,NW,315,0.0,0.2,48,0.00,,,0.00,WUHU216HW,2013-07-31 21:12:00,
2013-07-31 17:17:00,82.4,60.7,30.08,NW,315,0.0,0.0,48,0.00,,,0.00,WUHU216HW,2013-07-31 21:17:00,
2013-07-31 17:22:00,82.6,62.1,30.09,NW,315,0.0,0.0,50,0.00,,,0.00,WUHU216HW,2013-07-31 21:22:00,
2013-07-31 17:27:00,82.4,61.3,30.08,NW,315,0.0,1.1,49,0.00,,,0.00,WUHU216HW,2013-07-31 21:27:00,
2013-07-31 17:33:00,81.7,60.7,30.09,NW,315,0.0,1.3,49,0.00,,,0.00,WUHU216HW,2013-07-31 21:33:00,
2013-07-31 17:38:00,81.5,60.5,30.09,WNW,293,0.0,1.3,49,0.00,,,0.00,WUHU216HW,2013-07-31 21:38:00,
2013-07-31 17:43:00,81.5,61.1,30.09,SE,135,0.0,1.3,50,0.00,,,0.00,WUHU216HW,2013-07-31 21:43:00,
2013-07-31 17:48:00,81.7,60.7,30.09,West,270,0.0,1.3,49,0.00,,,0.00,WUHU216HW,2013-07-31 21:48:00,
2013-07-31 17:53:00,81.2,59.6,30.08,WNW,293,0.0,1.3,48,0.00,,,0.00,WUHU216HW,2013-07-31 21:53:00,
2013-07-31 17:58:00,81.0,60.7,30.08,WSW,248,0.0,1.3,50,0.00,,,0.00,WUHU216HW,2013-07-31 21:58:00,
2013-07-31 18:03:00,80.8,60.5,30.08,NW,315,0.0,1.3,50,0.00,,,0.00,WUHU216HW,2013-07-31 22:03:00,
2013-07-31 18:08:00,80.6,60.9,30.09,NW,315,0.0,1.6,51,0.00,,,0.00,WUHU216HW,2013-07-31 22:08:00,
2013-07-31 18:12:00,80.6,61.4,30.09,NW,315,0.0,1.6,52,0.00,,,0.00,WUHU216HW,2013-07-31 22:12:00,
2013-07-31 18:17:00,80.3,60.5,30.09,NW,315,0.0,0.0,51,0.00,,,0.00,WUHU216HW,2013-07-31 22:17:00,
2013-07-31 18:22:00,80.1,60.8,30.09,NW,315,0.0,0.0,52,0.00,,,0.00,WUHU216HW,2013-07-31 22:22:00,
2013-07-31 18:27:00,79.9,60.7,30.09,NNW,338,0.0,0.0,52,0.00,,,0.00,WUHU216HW,2013-07-31 22:27:00,
2013-07-31 18:32:00,79.9,61.2,30.08,NNW,338,0.0,1.1,53,0.00,,,0.00,WUHU216HW,2013-07-31 22:32:00,
2013-07-31 18:37:00,79.6,61.9,30.08,SW,225,0.0,1.3,55,0.00,,,0.00,WUHU216HW,2013-07-31 22:37:00,
2013-07-31 18:42:00,79.0,62.0,30.08,SW,225,0.0,1.3,56,0.00,,,0.00,WUHU216HW,2013-07-31 22:42:00,
2013-07-31 18:47:00,78.7,62.6,30.08,North,0,0.4,1.1,58,0.00,,,0.00,WUHU216HW,2013-07-31 22:47:00,
2013-07-31 18:52:00,78.1,62.2,30.08,North,0,0.0,1.1,58,0.00,,,0.00,WUHU216HW,2013-07-31 22:52:00,
2013-07-31 18:57:00,78.1,62.6,30.08,North,0,0.0,0.7,59,0.00,,,0.00,WUHU216HW,2013-07-31 22:57:00,
2013-07-31 19:02:00,77.8,62.8,30.08,North,0,0.0,0.2,60,0.00,,,0.00,WUHU216HW,2013-07-31 23:02:00,
2013-07-31 19:07:00,77.4,62.9,30.08,North,0,0.0,0.2,61,0.00,,,0.00,WUHU216HW,2013-07-31 23:07:00,
2013-07-31 19:13:00,77.4,62.9,30.08,NNW,338,0.4,0.4,61,0.00,,,0.00,WUHU216HW,2013-07-31 23:13:00,
2013-07-31 19:18:00,77.0,62.6,30.08,NNW,338,0.0,0.4,61,0.00,,,0.00,WUHU216HW,2013-07-31 23:18:00,
2013-07-31 19:23:00,77.0,63.0,30.08,NNW,338,0.0,0.4,62,0.00,,,0.00,WUHU216HW,2013-07-31 23:23:00,
2013-07-31 19:28:00,76.5,62.5,30.07,NNW,338,0.0,0.0,62,0.00,,,0.00,WUHU216HW,2013-07-31 23:28:00,
2013-07-31 19:33:00,76.1,62.7,30.07,NW,315,0.2,0.2,63,0.00,,,0.00,WUHU216HW,2013-07-31 23:33:00,
2013-07-31 19:38:00,75.8,62.7,30.07,WSW,248,0.9,0.9,64,0.00,,,0.00,WUHU216HW,2013-07-31 23:38:00,
2013-07-31 19:43:00,75.4,62.4,30.07,WNW,293,0.0,0.9,64,0.00,,,0.00,WUHU216HW,2013-07-31 23:43:00,
2013-07-31 19:48:00,75.1,62.0,30.07,WNW,293,0.0,0.9,64,0.00,,,0.00,WUHU216HW,2013-07-31 23:48:00,
2013-07-31 19:53:00,74.9,62.3,30.07,WNW,293,0.0,0.0,65,0.00,,,0.00,WUHU216HW,2013-07-31 23:53:00,
2013-07-31 19:58:00,74.5,62.4,30.07,WNW,293,0.0,0.0,66,0.00,,,0.00,WUHU216HW,2013-07-31 23:58:00,
2013-07-31 20:03:00,74.2,62.1,30.07,WNW,293,0.0,0.0,66,0.00,,,0.00,WUHU216HW,2013-08-01 00:03:00,
2013-07-31 20:08:00,74.2,62.1,30.07,WNW,293,0.0,0.0,66,0.00,,,0.00,WUHU216HW,2013-08-01 00:08:00,
2013-07-31 20:13:00,74.2,62.1,30.07,WNW,293,0.0,0.0,66,0.00,,,0.00,WUHU216HW,2013-08-01 00:13:00,
2013-07-31 21:00:00,70.7,60.5,30.08,WNW,293,0.0,0.0,70,0.00,,,0.00,WUHU216HW,2013-08-01 01:00:00,
2013-07-31 21:05:00,70.4,60.5,30.08,WNW,293,0.0,0.0,71,0.00,,,0.00,WUHU216HW,2013-08-01 01:05:00,
2013-07-31 21:10:00,70.2,60.3,30.08,WNW,293,0.0,0.0,71,0.00,,,0.00,WUHU216HW,2013-08-01 01:10:00,
2013-07-31 21:15:00,69.8,60.3,30.08,WNW,293,0.0,0.0,72,0.00,,,0.00,WUHU216HW,2013-08-01 01:15:00,
2013-07-31 21:20:00,69.7,60.2,30.08,WNW,293,0.0,0.0,72,0.00,,,0.00,WUHU216HW,2013-08-01 01:20:00,
2013-07-31 21:25:00,69.7,60.6,30.08,WNW,293,0.0,0.0,73,0.00,,,0.00,WUHU216HW,2013-08-01 01:25:00,
2013-07-31 21:30:00,69.5,60.4,30.08,WNW,293,0.0,0.0,73,0.00,,,0.00,WUHU216HW,2013-08-01 01:30:00,
2013-07-31 21:35:00,69.3,60.2,30.08,WNW,293,0.0,0.0,73,0.00,,,0.00,WUHU216HW,2013-08-01 01:35:00,
2013-07-31 21:40:00,69.1,60.5,30.08,WNW,293,0.0,0.0,74,0.00,,,0.00,WUHU216HW,2013-08-01 01:40:00,
2013-07-31 21:45:00,69.1,60.5,30.08,WNW,293,0.0,0.0,74,0.00,,,0.00,WUHU216HW,2013-08-01 01:45:00,
2013-07-31 21:50:00,68.8,60.1,30.08,WNW,293,0.0,0.0,74,0.00,,,0.00,WUHU216HW,2013-08-01 01:50:00,
2013-07-31 21:55:00,68.6,59.9,30.08,WNW,293,0.0,0.0,74,0.00,,,0.00,WUHU216HW,2013-08-01 01:55:00,
2013-07-31 22:00:00,68.4,60.2,30.08,WNW,293,0.0,0.0,75,0.00,,,0.00,WUHU216HW,2013-08-01 02:00:00,
2013-07-31 22:05:00,68.4,60.2,30.08,WNW,293,0.0,0.0,75,0.00,,,0.00,WUHU216HW,2013-08-01 02:05:00,
2013-07-31 22:10:00,68.2,60.4,30.08,WNW,293,0.0,0.0,76,0.00,,,0.00,WUHU216HW,2013-08-01 02:10:00,
2013-07-31 22:15:00,68.0,60.2,30.08,WNW,293,0.0,0.0,76,0.00,,,0.00,WUHU216HW,2013-08-01 02:15:00,
2013-07-31 22:20:00,67.7,60.2,30.08,WNW,293,0.0,0.0,77,0.00,,,0.00,WUHU216HW,2013-08-01 02:20:00,
2013-07-31 22:25:00,67.5,60.0,30.08,WNW,293,0.0,0.0,77,0.00,,,0.00,WUHU216HW,2013-08-01 02:25:00,
2013-07-31 22:30:00,67.3,59.9,30.08,WNW,293,0.0,0.0,77,0.00,,,0.00,WUHU216HW,2013-08-01 02:30:00,
2013-07-31 22:35:00,67.3,60.3,30.08,WNW,293,0.0,0.0,78,0.00,,,0.00,WUHU216HW,2013-08-01 02:35:00,
2013-07-31 22:40:00,67.3,60.3,30.08,WNW,293,0.0,0.0,78,0.00,,,0.00,WUHU216HW,2013-08-01 02:40:00,
2013-07-31 22:45:00,67.0,60.3,30.08,WNW,293,0.0,0.0,79,0.00,,,0.00,WUHU216HW,2013-08-01 02:45:00,
2013-07-31 22:50:00,67.0,60.3,30.08,WNW,293,0.0,0.0,79,0.00,,,0.00,WUHU216HW,2013-08-01 02:50:00,
2013-07-31 22:55:00,66.8,60.1,30.08,WNW,293,0.0,0.0,79,0.00,,,0.00,WUHU216HW,2013-08-01 02:55:00,
2013-07-31 23:00:00,66.8,60.1,30.08,WNW,293,0.0,0.0,79,0.00,,,0.00,WUHU216HW,2013-08-01 03:00:00,
2013-07-31 23:05:00,66.8,60.5,30.08,WNW,293,0.0,0.0,80,0.00,,,0.00,WUHU216HW,2013-08-01 03:05:00,
2013-07-31 23:10:00,66.6,60.3,30.08,WNW,293,0.0,0.0,80,0.00,,,0.00,WUHU216HW,2013-08-01 03:10:00,
2013-07-31 23:15:00,66.6,60.3,30.08,WNW,293,0.0,0.0,80,0.00,,,0.00,WUHU216HW,2013-08-01 03:15:00,
2013-07-31 23:20:00,66.6,60.3,30.08,WNW,293,0.0,0.0,80,0.00,,,0.00,WUHU216HW,2013-08-01 03:20:00,
2013-07-31 23:25:00,66.6,60.3,30.08,WNW,293,0.0,0.0,80,0.00,,,0.00,WUHU216HW,2013-08-01 03:25:00,
2013-07-31 23:30:00,66.4,60.1,30.08,WNW,293,0.0,0.0,80,0.00,,,0.00,WUHU216HW,2013-08-01 03:30:00,
2013-07-31 23:35:00,66.4,60.5,30.08,WNW,293,0.0,0.0,81,0.00,,,0.00,WUHU216HW,2013-08-01 03:35:00,
2013-07-31 23:40:00,66.2,60.3,30.07,WNW,293,0.0,0.0,81,0.00,,,0.00,WUHU216HW,2013-08-01 03:40:00,
2013-07-31 23:45:00,66.2,60.3,30.08,WNW,293,0.0,0.0,81,0.00,,,0.00,WUHU216HW,2013-08-01 03:45:00,
2013-07-31 23:50:00,66.2,60.6,30.08,WNW,293,0.0,0.0,82,0.00,,,0.00,WUHU216HW,2013-08-01 03:50:00,
2013-07-31 23:55:00,66.1,60.4,30.08,WNW,293,0.0,0.0,82,0.00,,,0.00,WUHU216HW,2013-08-01 03:55:00,